EW0844 Weather Reports


time (UTC)temp
C
wind
direction
speed
KPH
gust
KPH
rain 1hr
cm
rain 24hr
cm
rain mn
cm
humidity
%
barometer
mb
20260508114913 16 73 6.4 9.7 0.00 0.28 0.03 58 1016.4
20260508111912 16 121 4.8 9.7 0.00 0.28 0.03 57 1016.5
20260508110412 16 50 6.4 11.3 0.00 0.28 0.03 59 1016.6
20260508103413 16 82 3.2 14.5 0.00 0.28 0.03 64 1016.8
20260508100415 15 40 8.0 14.5 0.00 0.28 0.03 65 1017.0
20260508094914 15 27 6.4 14.5 0.00 0.28 0.03 67 1016.9
20260508091913 14 103 3.2 11.3 0.00 0.28 0.03 71 1017.2
20260508090413 13 41 6.4 11.3 0.00 0.28 0.03 70 1017.3
20260508084912 13 116 4.8 12.9 0.00 0.28 0.03 73 1017.4
20260508083412 13 88 4.8 9.7 0.00 0.28 0.03 74 1017.1
20260508080412 11 268 3.2 11.3 0.00 0.28 0.03 83 1017.2
20260508074912 11 123 6.4 12.9 0.00 0.33 0.03 84 1017.3
20260508073411 11 46 4.8 11.3 0.00 0.33 0.03 90 1017.3
20260508071912 10 67 4.8 9.7 0.00 0.33 0.03 94 1017.2
20260508070412 8 121 3.2 11.3 0.00 0.33 0.03 96 1017.3
20260508064911 8 84 3.2 9.7 0.00 0.33 0.03 96 1017.4
20260508063411 7 269 1.6 4.8 0.00 0.33 0.03 96 1017.2
20260508060411 7 38 1.6 6.4 0.00 0.33 0.03 96 1016.8
20260508054912 7 80 3.2 6.4 0.00 0.33 0.03 96 1016.7
20260508053412 7 45 3.2 4.8 0.00 0.33 0.03 96 1016.8
20260508050412 7 136 1.6 4.8 0.00 0.33 0.03 96 1016.7
20260508044912 7 117 1.6 6.4 0.00 0.33 0.03 95 1016.6
20260508043411 7 220 1.6 6.4 0.00 0.33 0.03 96 1016.5
20260508040412 6 100 3.2 8.0 0.00 0.33 0.03 95 1016.1
20260508034912 6 85 3.2 6.4 0.00 0.33 0.03 95 1016.1
20260508033412 6 61 3.2 4.8 0.00 0.33 0.03 95 1016.0
20260508031912 6 48 3.2 6.4 0.00 0.33 0.03 94 1016.0
20260508024911 6 313 1.6 3.2 0.00 0.33 0.03 94 1015.8
20260508023414 6 89 0.0 3.2 0.03 0.33 0.03 94 1015.8
20260508021911 7 133 0.0 1.6 0.03 0.33 0.03 94 1015.9
20260508020411 7 178 1.6 3.2 0.03 0.33 0.03 94 1015.9
20260508011911 8 133 0.0 1.6 0.00 0.30 0.00 94 1016.0
20260508010411 8 133 0.0 3.2 0.00 0.30 0.00 94 1016.0
20260508004911 8 45 0.0 1.6 0.00 0.30 0.00 94 1016.3
20260508003412 8 117 1.6 4.8 0.00 0.30 0.00 94 1016.4
20260508000412 8 108 1.6 3.2 0.00 0.30 0.00 93 1016.7
20260507234912 9 139 1.6 4.8 0.00 0.30 0.00 93 1016.7
20260507233411 9 88 0.0 3.2 0.00 0.30 0.00 93 1016.7
20260507231912 9 178 0.0 1.6 0.00 0.30 0.00 93 1016.8
20260507230411 9 197 0.0 1.6 0.00 0.30 0.00 93 1017.0
20260507223412 9 359 1.6 3.2 0.00 0.30 0.00 93 1017.1
20260507221911 9 241 0.0 1.6 0.00 0.30 0.00 93 1017.1
20260507214911 9 142 1.6 3.2 0.00 0.30 0.30 93 1017.0
20260507213411 10 230 1.6 3.2 0.00 0.30 0.30 93 1016.9
20260507203412 10 220 3.2 4.8 0.00 0.30 0.30 92 1016.7
20260507201913 10 218 3.2 4.8 0.00 0.30 0.30 92 1016.6
20260507200411 10 221 1.6 4.8 0.00 0.30 0.30 92 1016.4
20260507194913 10 97 1.6 6.4 0.00 0.30 0.30 92 1016.4
20260507193412 10 221 3.2 6.4 0.00 0.30 0.30 92 1016.2
20260507190411 10 133 3.2 6.4 0.13 0.30 0.30 90 1015.9
20260507184912 10 88 1.6 4.8 0.25 0.36 0.30 90 1015.7
20260507183412 11 89 1.6 4.8 0.25 0.36 0.30 88 1015.5
20260507181911 11 175 1.6 4.8 0.25 0.36 0.30 87 1015.4
20260507174911 12 177 0.0 4.8 0.00 0.15 0.05 71 1014.9
20260507173411 12 113 1.6 4.8 0.00 0.15 0.05 71 1014.8
20260507170415 13 360 1.6 9.7 0.00 0.15 0.05 70 1014.5
20260507164911 13 22 3.2 8.0 0.00 0.15 0.05 71 1014.2
20260507163412 13 360 3.2 6.4 0.00 0.15 0.05 67 1014.4
20260507161911 14 313 3.2 8.0 0.00 0.15 0.05 63 1014.3
20260507154916 15 359 4.8 9.7 0.00 0.15 0.05 61 1014.2
20260507153412 14 301 4.8 9.7 0.00 0.15 0.05 62 1014.2
20260507151912 15 302 6.4 14.5 0.00 0.15 0.05 60 1014.1
20260507150412 15 359 6.4 12.9 0.00 0.15 0.05 58 1014.0
20260507144912 15 301 3.2 9.7 0.00 0.15 0.05 57 1013.9
20260507143413 15 359 8.0 12.9 0.00 0.15 0.05 57 1013.9
20260507141912 15 323 6.4 14.5 0.00 0.15 0.05 54 1013.7
20260507140413 16 359 9.7 20.9 0.00 0.15 0.05 53 1013.6
20260507133412 15 313 9.7 16.1 0.00 0.15 0.05 54 1013.8
20260507131912 16 292 11.3 19.3 0.00 0.15 0.05 54 1013.7
20260507130412 16 313 4.8 17.7 0.00 0.15 0.05 54 1013.7
20260507124912 16 359 12.9 22.5 0.00 0.15 0.05 51 1013.6
20260507123412 16 283 9.7 19.3 0.00 0.15 0.05 53 1013.7